Total_Precipitation_Accumulation
0.01 0.00 0.00 0.00 0.00 0.00 0.00 0.00 0.00 0.00 0.00 0.00 0.00 0.00 0.00 0.00 0.00 0.00 0.00 0.00 0.00 0.00 0.00 0.01 0.02 0.04 0.09 0.27 0.23 0.21 0.17 0.13 0.08 0.07 0.06 0.04 0.05 0.06 0.09 0.11 0.12 0.12 0.12
0.00 0.00 0.00 0.00 0.00 0.00 0.00 0.00 0.00 0.00 0.00 0.00 0.00 0.00 0.00 0.00 0.00 0.00 0.00 0.00 0.00 0.00 0.00 0.00 0.02 0.08 0.16 0.23 0.22 0.27 0.28 0.16 0.10 0.10 0.08 0.07 0.08 0.10 0.13 0.15 0.15 0.16 0.17
0.00 0.00 0.00 0.00 0.00 0.00 0.00 0.00 0.00 0.00 0.00 0.00 0.00 0.00 0.00 0.00 0.00 0.00 0.00 0.00 0.00 0.00 0.00 0.00 0.02 0.10 0.20 0.12 0.19 0.27 0.33 0.27 0.20 0.18 0.14 0.09 0.11 0.14 0.17 0.19 0.20 0.19 0.18
0.00 0.00 0.00 0.00 0.00 0.00 0.00 0.00 0.00 0.00 0.00 0.00 0.00 0.00 0.00 0.00 0.00 0.00 0.00 0.00 0.00 0.00 0.00 0.00 0.02 0.06 0.06 0.08 0.12 0.21 0.26 0.33 0.28 0.24 0.24 0.18 0.17 0.17 0.19 0.23 0.24 0.24 0.27
0.03 0.01 0.00 0.00 0.00 0.00 0.00 0.00 0.00 0.00 0.00 0.00 0.00 0.00 0.00 0.00 0.00 0.00 0.00 0.00 0.00 0.00 0.00 0.00 0.00 0.00 0.02 0.08 0.10 0.12 0.17 0.30 0.29 0.28 0.29 0.33 0.33 0.27 0.26 0.30 0.34 0.35 0.33
0.07 0.07 0.03 0.02 0.01 0.00 0.00 0.00 0.00 0.00 0.00 0.01 0.01 0.00 0.00 0.00 0.00 0.00 0.00 0.00 0.01 0.01 0.00 0.01 0.00 0.00 0.02 0.08 0.15 0.10 0.07 0.13 0.24 0.27 0.31 0.38 0.43 0.41 0.35 0.33 0.38 0.40 0.35
0.28 0.23 0.10 0.07 0.08 0.04 0.04 0.03 0.03 0.02 0.02 0.06 0.05 0.01 0.00 0.00 0.00 0.00 0.00 0.01 0.01 0.02 0.01 0.01 0.01 0.02 0.05 0.08 0.09 0.10 0.11 0.13 0.24 0.36 0.38 0.36 0.41 0.42 0.46 0.42 0.46 0.45 0.40
0.76 0.59 0.34 0.24 0.16 0.11 0.08 0.07 0.10 0.16 0.14 0.20 0.20 0.10 0.02 0.00 0.00 0.00 0.00 0.00 0.00 0.00 0.01 0.01 0.02 0.03 0.04 0.05 0.06 0.06 0.03 0.04 0.09 0.20 0.33 0.39 0.40 0.44 0.48 0.53 0.51 0.60 0.70
1.03 1.05 0.93 0.92 0.85 0.65 0.51 0.40 0.35 0.37 0.45 0.35 0.26 0.30 0.11 0.01 0.00 0.00 0.00 0.00 0.00 0.00 0.00 0.02 0.02 0.02 0.01 0.01 0.01 0.01 0.01 0.03 0.06 0.11 0.24 0.38 0.40 0.39 0.43 0.45 0.56 0.81 1.16
1.00 1.13 1.24 1.13 1.21 1.21 1.05 0.99 0.87 0.73 0.59 0.39 0.37 0.28 0.25 0.11 0.08 0.04 0.01 0.01 0.01 0.01 0.02 0.03 0.03 0.03 0.02 0.01 0.01 0.01 0.02 0.05 0.07 0.13 0.25 0.46 0.78 0.77 0.67 0.74 0.91 1.18 1.42
1.66 1.60 1.59 1.64 1.49 1.53 1.64 1.39 1.27 1.12 1.00 0.81 0.56 0.44 0.29 0.17 0.12 0.09 0.05 0.05 0.06 0.06 0.05 0.04 0.02 0.01 0.01 0.01 0.03 0.08 0.15 0.18 0.21 0.26 0.38 0.60 0.95 1.20 1.10 1.11 1.25 1.41 1.38
1.37 1.60 1.58 1.45 1.41 1.15 0.98 0.94 0.88 0.83 0.77 0.66 0.47 0.33 0.31 0.31 0.25 0.21 0.16 0.11 0.12 0.11 0.08 0.05 0.03 0.03 0.04 0.05 0.10 0.19 0.28 0.34 0.43 0.56 0.75 0.92 1.03 1.25 1.39 1.38 1.38 1.33 1.44
0.84 0.71 0.78 0.80 0.76 0.74 0.68 0.68 0.52 0.50 0.60 0.54 0.47 0.33 0.33 0.34 0.42 0.40 0.33 0.20 0.17 0.12 0.08 0.06 0.07 0.07 0.09 0.11 0.16 0.29 0.43 0.59 0.67 0.79 1.00 1.15 1.15 0.97 0.90 1.04 1.34 1.57 1.46
0.97 0.78 0.62 0.52 0.45 0.36 0.31 0.35 0.30 0.24 0.30 0.34 0.38 0.41 0.34 0.30 0.33 0.34 0.40 0.55 0.61 0.46 0.32 0.26 0.26 0.29 0.32 0.38 0.49 0.63 0.62 0.70 0.75 0.88 1.03 1.12 1.13 0.92 0.77 0.77 1.00 1.32 1.40
0.42 0.51 0.51 0.55 0.50 0.40 0.34 0.33 0.30 0.26 0.24 0.27 0.33 0.34 0.38 0.28 0.27 0.27 0.30 0.42 0.63 0.74 0.56 0.46 0.49 0.48 0.47 0.46 0.52 0.53 0.58 0.77 0.84 0.85 0.88 0.96 1.06 1.13 0.91 0.94 0.93 1.04 1.24
0.21 0.20 0.23 0.23 0.19 0.21 0.24 0.22 0.23 0.26 0.32 0.29 0.25 0.26 0.26 0.23 0.25 0.29 0.31 0.44 0.61 0.78 0.85 0.61 0.55 0.56 0.61 0.66 0.75 0.69 0.68 0.80 0.80 0.83 0.80 0.74 0.72 0.62 0.47 0.48 0.56 0.52 0.43
0.09 0.10 0.09 0.09 0.09 0.08 0.09 0.09 0.11 0.15 0.21 0.22 0.21 0.22 0.23 0.24 0.28 0.31 0.39 0.48 0.61 0.76 0.92 0.87 0.82 0.80 0.82 0.80 0.74 0.58 0.50 0.41 0.38 0.43 0.40 0.33 0.26 0.24 0.23 0.22 0.23 0.26 0.29
0.05 0.06 0.07 0.07 0.07 0.07 0.10 0.17 0.22 0.24 0.25 0.26 0.26 0.29 0.30 0.30 0.27 0.31 0.40 0.50 0.67 0.85 1.03 1.09 1.04 0.95 0.80 0.62 0.44 0.27 0.17 0.11 0.07 0.14 0.11 0.08 0.09 0.10 0.08 0.08 0.12 0.14 0.16
0.04 0.04 0.03 0.05 0.07 0.11 0.14 0.16 0.16 0.15 0.17 0.23 0.26 0.29 0.31 0.32 0.34 0.38 0.41 0.42 0.45 0.44 0.40 0.36 0.28 0.22 0.20 0.18 0.13 0.07 0.04 0.02 0.02 0.05 0.05 0.04 0.04 0.03 0.04 0.05 0.09 0.10 0.13
0.04 0.04 0.03 0.04 0.04 0.04 0.05 0.06 0.09 0.12 0.16 0.19 0.25 0.31 0.37 0.45 0.47 0.47 0.42 0.38 0.30 0.21 0.16 0.15 0.21 0.21 0.17 0.09 0.05 0.02 0.02 0.01 0.01 0.00 0.02 0.01 0.02 0.04 0.05 0.05 0.03 0.02 0.01
0.05 0.05 0.05 0.05 0.06 0.07 0.10 0.12 0.16 0.24 0.35 0.44 0.51 0.52 0.50 0.49 0.45 0.37 0.27 0.21 0.18 0.15 0.26 0.39 0.32 0.25 0.13 0.04 0.01 0.01 0.02 0.02 0.02 0.01 0.01 0.02 0.03 0.02 0.00 0.00 0.00 0.01 0.02
0.17 0.20 0.22 0.16 0.16 0.24 0.44 0.37 0.35 0.37 0.37 0.37 0.36 0.31 0.31 0.34 0.26 0.22 0.17 0.14 0.15 0.27 0.35 0.42 0.35 0.14 0.02 0.00 0.01 0.05 0.16 0.14 0.11 0.00 0.03 0.02 0.00 0.00 0.00 0.00 0.02 0.03 0.04
0.38 0.53 0.56 0.60 0.70 0.82 0.91 0.75 0.61 0.46 0.43 0.37 0.33 0.29 0.22 0.14 0.10 0.07 0.04 0.08 0.20 0.27 0.26 0.14 0.04 0.01 0.02 0.05 0.23 0.24 0.14 0.16 0.11 0.01 0.05 0.07 0.01 0.01 0.01 0.01 0.01 0.01 0.03
0.88 0.78 0.69 0.82 0.89 0.82 0.70 0.53 0.49 0.36 0.31 0.29 0.24 0.12 0.05 0.02 0.01 0.03 0.08 0.21 0.15 0.09 0.01 0.00 0.01 0.03 0.08 0.09 0.10 0.23 0.22 0.13 0.05 0.01 0.03 0.14 0.02 0.01 0.00 0.00 0.01 0.01 0.03
0.81 0.71 0.57 0.48 0.45 0.43 0.29 0.18 0.12 0.10 0.08 0.05 0.03 0.01 0.02 0.02 0.02 0.10 0.16 0.22 0.07 0.00 0.00 0.01 0.07 0.05 0.02 0.01 0.01 0.13 0.20 0.20 0.13 0.01 0.01 0.09 0.04 0.02 0.01 0.00 0.00 0.04 0.06
0.60 0.49 0.38 0.33 0.24 0.14 0.08 0.05 0.04 0.03 0.02 0.01 0.00 0.00 0.01 0.02 0.06 0.21 0.15 0.04 0.01 0.01 0.07 0.06 0.01 0.00 0.00 0.00 0.01 0.04 0.19 0.56 0.28 0.22 0.01 0.29 0.16 0.12 0.39 0.03 0.01 0.02 0.01